Dunedin (NZDN)

Aerodrome — Elev 4
New Zealand
S045.55.41.002 E170.11.53.999
Loading chart...

Current Weather

NZDN 300430Z 14008KT 42KM OVC025 19/14 Q1019 RMK SWAMPY 11011KT AUTO VATSIM USE

Published 40 minutes ago

Airport Activity

Loading chart...
Loading chart...

Standard ATC Positions

CallsignRadio Name / Freq / Voice Room / TypeFrequencyType
NZCH-S_CTR Christchurch Control
129.300
nzch-s_ctr
129.300
NZDN_TWR Dunedin Tower
120.700
nzdn_twr
120.700
NZDN_ATIS Dunedin ATIS
126.450
nzdn_atis
126.450
UNICOM NZZC UNICOM
122.800
unicom_nzzc
122.800

Event ATC Positions

This airport has additional control positions that are designated for use only during major events.
These non-standard positions must not be staffed unless specifically activated by the VATNZ Airspace Director as part of an official VATNZ event.
At all other times, controllers should use the designated Standard ATC Positions.

CallsignRadio Name / Freq / Voice Room / TypeFrequencyType
NZCH-D_CTR Christchurch Director
129.200
nzch-d_ctr
129.200

Charts